Satellite: NOAA-14
Catalog number: 23455
Epoch time: 10063.40006384
Element set: 970
Inclination: 098.8841 deg
RA of node: 144.8540 deg
Eccentricity: 0.0009516
Arg of perigee: 168.2900 deg
Mean anomaly: 191.8517 deg
Mean motion: 14.13779797 rev/day
Decay rate: -1.5e-07 rev/day^2
Epoch rev: 78269
Checksum: 323
Satellite: NOAA-15
Catalog number: 25338
Epoch time: 10063.52002763
Element set: 289
Inclination: 098.6124 deg
RA of node: 052.3631 deg
Eccentricity: 0.0011027
Arg of perigee: 025.0624 deg
Mean anomaly: 335.1097 deg
Mean motion: 14.24808943 rev/day
Decay rate: -1.64e-06 rev/day^2
Epoch rev: 61384
Checksum: 276
Satellite: RESURS
Catalog number: 25394
Epoch time: 10063.10571009
Element set: 445
Inclination: 098.3139 deg
RA of node: 086.8680 deg
Eccentricity: 0.0001773
Arg of perigee: 137.2657 deg
Mean anomaly: 222.8670 deg
Mean motion: 14.24194337 rev/day
Decay rate: 3.1e-07 rev/day^2
Epoch rev: 60539
Checksum: 289
Satellite: FENGYUN1
Catalog number: 25730
Epoch time: 10063.43307986
Element set: 987
Inclination: 098.7775 deg
RA of node: 031.1467 deg
Eccentricity: 0.0023218
Arg of perigee: 200.7394 deg
Mean anomaly: 159.2810 deg
Mean motion: 14.08177607 rev/day
Decay rate: 2.86e-06 rev/day^2
Epoch rev: 55694
Checksum: 319
Satellite: OKEAN-0
Catalog number: 25860
Epoch time: 10063.50959451
Element set: 929
Inclination: 097.8208 deg
RA of node: 039.8338 deg
Eccentricity: 0.0001871
Arg of perigee: 071.1004 deg
Mean anomaly: 289.0411 deg
Mean motion: 14.73618503 rev/day
Decay rate: 5.9e-07 rev/day^2
Epoch rev: 57148
Checksum: 300
Satellite: NOAA-16
Catalog number: 26536
Epoch time: 10063.53550285
Element set: 766
Inclination: 099.1758 deg
RA of node: 078.5097 deg
Eccentricity: 0.0009705
Arg of perigee: 271.5419 deg
Mean anomaly: 088.4655 deg
Mean motion: 14.12547221 rev/day
Decay rate: -1.33e-06 rev/day^2
Epoch rev: 48705
Checksum: 323
Satellite: NOAA-17
Catalog number: 27453
Epoch time: 10063.31282362
Element set: 771
Inclination: 098.4451 deg
RA of node: 117.9148 deg
Eccentricity: 0.0012725
Arg of perigee: 085.2010 deg
Mean anomaly: 275.0620 deg
Mean motion: 14.24136907 rev/day
Decay rate: 2.40e-06 rev/day^2
Epoch rev: 39977
Checksum: 286
Satellite: NOAA-18
Catalog number: 28654
Epoch time: 10063.30696064
Element set: 257
Inclination: 098.9413 deg
RA of node: 009.9302 deg
Eccentricity: 0.0014375
Arg of perigee: 353.0355 deg
Mean anomaly: 007.0623 deg
Mean motion: 14.11333129 rev/day
Decay rate: -1.0e-07 rev/day^2
Epoch rev: 24664
Checksum: 274
Satellite: NOAA-19
Catalog number: 33591
Epoch time: 10063.34307249
Element set: 458
Inclination: 098.7789 deg
RA of node: 007.7444 deg
Eccentricity: 0.0013358
Arg of perigee: 224.0313 deg
Mean anomaly: 135.9807 deg
Mean motion: 14.11028924 rev/day
Decay rate: -3.3e-07 rev/day^2
Epoch rev: 5512
Checksum: 295
/EX
SB KEPS @ AMSAT $ORB10064.M
Orbital Elements 10064.MISC
HR AMSAT ORBITAL ELEMENTS FOR MANNED AND MISCELLANEOUS SATELLITES
FROM WA5QGD FORT WORTH,TX March 5, 2010
Send Subscribe/unsubscribe to KEPS at http://www.amsat.org/mailman/listinfo/keps
BID: ORB10064.M
TO ALL RADIO AMATEURS BT
Satellite: HUBBLE
Catalog number: 20580
Epoch time: 10063.58635383
Element set: 531
Inclination: 028.4681 deg
RA of node: 202.7003 deg
Eccentricity: 0.0003608
Arg of perigee: 173.2518 deg
Mean anomaly: 186.8077 deg
Mean motion: 15.00910894 rev/day
Decay rate: 4.94e-06 rev/day^2
Epoch rev: 88902
Checksum: 289
Satellite: ISS
Catalog number: 25544
Epoch time: 10064.25728148
Element set: 704
Inclination: 051.6468 deg
RA of node: 044.1586 deg
Eccentricity: 0.0007596
Arg of perigee: 015.0088 deg
Mean anomaly: 071.6680 deg
Mean motion: 15.73640827 rev/day
Decay rate: 1.4794e-04 rev/day^2
Epoch rev: 64710
Checksum: 307
Satellite: CO-58
Catalog number: 28895
Epoch time: 10062.70450115
Element set: 526
Inclination: 098.0287 deg
RA of node: 310.5895 deg
Eccentricity: 0.0016812
Arg of perigee: 254.3483 deg
Mean anomaly: 105.5937 deg
Mean motion: 14.59853823 rev/day
Decay rate: 2.01e-06 rev/day^2
Epoch rev: 23159
Checksum: 313
Satellite: FALCON
Catalog number: 30776
Epoch time: 10062.90307538
Element set: 777
Inclination: 035.4346 deg
RA of node: 323.4242 deg
Eccentricity: 0.0001767
Arg of perigee: 329.1766 deg
Mean anomaly: 030.8846 deg
Mean motion: 15.03503669 rev/day
Decay rate: 7.85e-06 rev/day^2
Epoch rev: 16420
Checksum: 297
Satellite: MAST
Catalog number: 31126
Epoch time: 10063.72790156
Element set: 810
Inclination: 097.9507 deg
RA of node: 111.0752 deg
Eccentricity: 0.0094582
Arg of perigee: 190.1872 deg
Mean anomaly: 169.7396 deg
Mean motion: 14.53559986 rev/day
Decay rate: 2.08e-06 rev/day^2
Epoch rev: 15288
Checksum: 318
Satellite: CAPE1
Catalog number: 31130
Epoch time: 10063.60914541
Element set: 829
Inclination: 097.9492 deg
RA of node: 108.5811 deg
Eccentricity: 0.0102545
Arg of perigee: 198.0336 deg
Mean anomaly: 161.7148 deg
Mean motion: 14.52142944 rev/day
Decay rate: 9.8e-07 rev/day^2
Epoch rev: 15248
Checksum: 290
Satellite: COMPASS
Catalog number: 32787
Epoch time: 10062.69461208
Element set: 610
Inclination: 097.9049 deg
RA of node: 128.8543 deg
Eccentricity: 0.0014726
Arg of perigee: 269.0482 deg
Mean anomaly: 090.9037 deg
Mean motion: 14.81778287 rev/day
Decay rate: 6.40e-06 rev/day^2
Epoch rev: 9987
Checksum: 332
Satellite: AAUSAT2
Catalog number: 32788
Epoch time: 10062.43755648
Element set: 604
Inclination: 097.9061 deg
RA of node: 128.7094 deg
Eccentricity: 0.0013897
Arg of perigee: 271.7049 deg
Mean anomaly: 088.2512 deg
Mean motion: 14.81912900 rev/day
Decay rate: 5.03e-06 rev/day^2
Epoch rev: 9984
Checksum: 320
Satellite: DO-64
Catalog number: 32789
Epoch time: 10062.25201417
Element set: 620
Inclination: 097.9116 deg
RA of node: 128.8849 deg
Eccentricity: 0.0014572
Arg of perigee: 269.9126 deg
Mean anomaly: 090.0413 deg
Mean motion: 14.81989390 rev/day
Decay rate: 3.39e-06 rev/day^2
Epoch rev: 9981
Checksum: 326
Satellite: CO-66
Catalog number: 32791
Epoch time: 10063.17452524
Element set: 601
Inclination: 097.9066 deg
RA of node: 129.3533 deg
Eccentricity: 0.0014996
Arg of perigee: 266.0755 deg
Mean anomaly: 093.8708 deg
Mean motion: 14.81579889 rev/day
Decay rate: 2.41e-06 rev/day^2
Epoch rev: 9990
Checksum: 343
Satellite: RS-30
Catalog number: 32953
Epoch time: 10062.60762319
Element set: 539
Inclination: 082.4985 deg
RA of node: 095.3407 deg
Eccentricity: 0.0018277
Arg of perigee: 337.2807 deg
Mean anomaly: 022.7470 deg
Mean motion: 12.43003847 rev/day
Decay rate: 1.0e-07 rev/day^2
Epoch rev: 8062
Checksum: 286
Satellite: TACSAT-3
Catalog number: 35001
Epoch time: 10063.59728232
Element set: 230
Inclination: 040.4559 deg
RA of node: 121.8641 deg
Eccentricity: 0.0023434
Arg of perigee: 301.7054 deg
Mean anomaly: 058.1476 deg
Mean motion: 15.40554018 rev/day
Decay rate: 5.590e-05 rev/day^2
Epoch rev: 4449
Checksum: 264
Satellite: PHARMSAT
Catalog number: 35002
Epoch time: 10063.46043939
Element set: 218
Inclination: 040.4710 deg
RA of node: 121.1014 deg
Eccentricity: 0.0026495
Arg of perigee: 303.7953 deg
Mean anomaly: 056.0340 deg
Mean motion: 15.41189219 rev/day
Decay rate: 4.602e-05 rev/day^2
Epoch rev: 4448
Checksum: 250
Satellite: HAWKSAT1
Catalog number: 35003
Epoch time: 10063.47929045
Element set: 230
Inclination: 040.4637 deg
RA of node: 118.3315 deg
Eccentricity: 0.0024650
Arg of perigee: 311.2683 deg
Mean anomaly: 048.6011 deg
Mean motion: 15.43091981 rev/day
Decay rate: 9.093e-05 rev/day^2
Epoch rev: 4452
Checksum: 259
Satellite: CP6
Catalog number: 35004
Epoch time: 10063.45530196
Element set: 223
Inclination: 040.4660 deg
RA of node: 118.1620 deg
Eccentricity: 0.0023884
Arg of perigee: 310.6795 deg
Mean anomaly: 049.1950 deg
Mean motion: 15.43513599 rev/day
Decay rate: 1.0586e-04 rev/day^2
Epoch rev: 4451
Checksum: 277
Satellite: AEROCUB3
Catalog number: 35005
Epoch time: 10062.55966831
Element set: 236
Inclination: 040.4755 deg
RA of node: 124.0049 deg
Eccentricity: 0.0022106
Arg of perigee: 303.6424 deg
Mean anomaly: 056.2284 deg
Mean motion: 15.44653976 rev/day
Decay rate: 2.0572e-04 rev/day^2
Epoch rev: 4437
Checksum: 275
Satellite: DRAGNSAT
Catalog number: 35690
Epoch time: 10063.26916647
Element set: 295
Inclination: 051.6303 deg
RA of node: 026.6234 deg
Eccentricity: 0.0004055
Arg of perigee: 138.5403 deg
Mean anomaly: 221.6009 deg
Mean motion: 16.10700200 rev/day
Decay rate: 4.05399e-03 rev/day^2
Epoch rev: 3446
Checksum: 259
Satellite: POLLUX
Catalog number: 35693
Epoch time: 10063.35545927
Element set: 292
Inclination: 051.6318 deg
RA of node: 028.7836 deg
Eccentricity: 0.0004938
Arg of perigee: 118.0063 deg
Mean anomaly: 242.1982 deg
Mean motion: 16.03794029 rev/day
Decay rate: 2.16072e-03 rev/day^2
Epoch rev: 3441
Checksum: 295
Satellite: CASTOR
Catalog number: 35694
Epoch time: 10063.39954103
Element set: 213
Inclination: 051.6373 deg
RA of node: 035.2979 deg
Eccentricity: 0.0004643
Arg of perigee: 120.5511 deg
Mean anomaly: 239.6483 deg
Mean motion: 15.88743320 rev/day
Decay rate: 4.2915e-04 rev/day^2
Epoch rev: 3433
Checksum: 286
Satellite: METEOR-M
Catalog number: 35865
Epoch time: 10063.21008766
Element set: 141
Inclination: 098.7725 deg
RA of node: 117.6946 deg
Eccentricity: 0.0001804
Arg of perigee: 323.7744 deg
Mean anomaly: 036.3285 deg
Mean motion: 14.21828948 rev/day
Decay rate: 1.76e-06 rev/day^2
Epoch rev: 2380
Checksum: 299
Satellite: RS-38
Catalog number: 35869
Epoch time: 10062.70012911
Element set: 143
Inclination: 098.7728 deg
RA of node: 117.2121 deg
Eccentricity: 0.0004425
Arg of perigee: 320.6480 deg
Mean anomaly: 039.4341 deg
Mean motion: 14.21976340 rev/day
Decay rate: 1.76e-06 rev/day^2
Epoch rev: 2373
Checksum: 274
/EX
More information about the Keps
mailing list